Date String (YYYY-MM-DD hh:mm:ss) UTC,Instrument flags,Ambient pressure (hPa),Sample flow (lpm),Bypass flow (lpm),Sample temperature (°C),Ambient temperature (°C),ASC tube jacket temperature (°C),LED temperature (°C),Box temperature (°C),Sample RH (%),Span deviation,Mass concentration (μg/m³),Mass concentration (μg/m³),Mass concentration (μg/m³)
DateTimeUTC,F1_M11,P_M11,Q1_M11,Q2_M11,T1_M11,T2_M11,T3_M11,T4_M11,T5_M11,U1_M11,ZSPAN_M11,X0_M11,X2_M11,X1_M11
2022-11-08 23:00:00,,0820.6,5.01,0.00,30.6,29.6,00.0,39.3,32.4,09.6,0000.0,0014.16,0003.53,0002.44
2022-11-08 23:01:00,,0820.6,5.00,0.00,30.6,29.6,00.0,39.3,32.4,09.7,0000.0,0013.41,0003.49,0002.43
2022-11-08 23:02:00,,0820.6,5.00,0.00,30.6,29.6,00.0,39.3,32.5,09.4,0000.0,0013.28,0003.45,0002.40
2022-11-08 23:03:00,,0820.6,5.00,0.00,30.7,29.6,00.0,39.3,32.5,09.1,0000.0,0013.15,0003.43,0002.38
2022-11-08 23:04:00,,0820.6,5.00,0.00,30.7,29.6,00.0,39.3,32.5,09.0,0000.0,0011.66,0003.38,0002.36
2022-11-08 23:05:00,,0820.6,5.00,0.00,30.7,29.6,00.0,39.3,32.5,09.1,0000.0,0010.61,0003.28,0002.33
2022-11-08 23:06:00,,0820.6,4.99,0.00,30.7,29.6,00.0,39.4,32.5,09.1,0000.0,0010.25,0003.24,0002.31
2022-11-08 23:07:00,,0820.6,5.01,0.00,30.7,29.6,00.0,39.4,32.5,09.2,0000.0,0009.22,0003.19,0002.26
2022-11-08 23:08:00,,0820.6,5.01,0.00,30.7,29.7,00.0,39.4,32.5,09.1,0000.0,0008.62,0003.16,0002.22
2022-11-08 23:09:00,,0820.6,5.01,0.00,30.7,29.7,00.0,39.4,32.6,09.1,0000.0,0009.06,0003.11,0002.19
2022-11-08 23:10:00,,0820.6,4.98,0.00,30.7,28.9,00.0,39.4,32.5,09.1,0000.0,0009.16,0003.08,0002.16
2022-11-08 23:11:00,,0820.6,5.00,0.00,30.7,27.2,00.0,39.4,32.2,09.1,0000.0,0009.46,0003.06,0002.12
2022-11-08 23:12:00,,0820.6,5.01,0.00,30.6,26.6,00.0,39.3,32.0,09.3,0000.0,0009.46,0003.05,0002.09
2022-11-08 23:13:00,,0820.6,5.01,0.00,30.5,26.8,00.0,39.2,31.9,09.5,0000.0,0009.82,0003.08,0002.08
2022-11-08 23:14:00,,0820.6,4.99,0.00,30.3,27.1,00.0,39.2,31.9,09.5,0000.0,0010.33,0003.09,0002.07
2022-11-08 23:15:00,,0820.6,5.00,0.00,30.3,27.5,00.0,39.1,31.9,09.5,0000.0,0009.96,0003.05,0002.05
2022-11-08 23:16:00,,0820.6,5.01,0.00,30.2,27.8,00.0,39.1,31.9,09.3,0000.0,0009.71,0003.03,0002.03
2022-11-08 23:17:00,,0820.6,4.99,0.00,30.2,28.0,00.0,39.1,31.9,09.2,0000.0,0009.47,0003.00,0002.00
2022-11-08 23:18:00,,0820.6,5.00,0.00,30.2,28.2,00.0,39.1,31.9,09.1,0000.0,0010.25,0002.97,0001.97
2022-11-08 23:19:00,,0820.6,5.00,0.00,30.2,28.4,00.0,39.0,31.9,09.0,0000.0,0010.44,0002.93,0001.95
2022-11-08 23:20:00,,0820.6,5.00,0.00,30.2,28.5,00.0,39.0,32.0,09.0,0000.0,0010.03,0002.91,0001.94
2022-11-08 23:21:00,,0820.6,5.00,0.00,30.2,28.6,00.0,39.0,32.0,08.9,0000.0,0009.44,0002.90,0001.92
2022-11-08 23:22:00,,0820.6,5.01,0.00,30.2,28.7,00.0,39.0,32.0,08.9,0000.0,0009.61,0002.88,0001.91
2022-11-08 23:23:00,,0820.6,4.99,0.00,30.2,28.8,00.0,39.0,32.0,08.9,0000.0,0009.93,0002.86,0001.89
2022-11-08 23:24:00,,0820.6,4.99,0.00,30.2,28.9,00.0,39.0,32.1,08.8,0000.0,0010.21,0002.74,0001.85
2022-11-08 23:25:00,,0820.6,5.00,0.00,30.3,28.9,00.0,39.0,32.1,08.7,0000.0,0010.32,0002.65,0001.81
2022-11-08 23:26:00,,0820.6,5.01,0.00,30.3,29.0,00.0,39.0,32.1,08.7,0000.0,0010.21,0002.64,0001.80
2022-11-08 23:27:00,,0820.6,5.00,0.00,30.3,29.0,00.0,39.0,32.1,08.7,0000.0,0010.10,0002.67,0001.78
2022-11-08 23:28:00,,0820.6,5.01,0.00,30.3,29.1,00.0,39.0,32.2,08.8,0000.0,0010.19,0002.66,0001.78
2022-11-08 23:29:00,,0820.6,4.99,0.00,30.3,29.1,00.0,39.0,32.2,08.8,0000.0,0010.54,0002.65,0001.78
2022-11-08 23:30:00,,0820.6,5.01,0.00,30.4,29.1,00.0,39.0,32.2,09.0,0000.0,0010.44,0002.70,0001.79
2022-11-08 23:31:00,,0820.6,5.01,0.00,30.4,29.2,00.0,39.1,32.2,09.0,0000.0,0010.18,0002.74,0001.78
2022-11-08 23:32:00,,0820.6,5.01,0.00,30.4,29.2,00.0,39.1,32.2,09.1,0000.0,0010.01,0002.71,0001.77
2022-11-08 23:33:00,,0820.7,5.00,0.00,30.4,29.2,00.0,39.1,32.2,09.2,0000.0,0009.36,0002.70,0001.78
2022-11-08 23:34:00,,0820.6,4.98,0.00,30.4,29.2,00.0,39.1,32.3,09.2,0000.0,0009.30,0002.69,0001.78
2022-11-08 23:35:00,,0820.6,5.00,0.00,30.4,29.3,00.0,39.1,32.3,09.2,0000.0,0008.40,0002.74,0001.81
2022-11-08 23:36:00,,0820.6,5.01,0.00,30.4,29.3,00.0,39.1,32.3,09.2,0000.0,0008.28,0002.81,0001.84
2022-11-08 23:37:00,,0820.6,5.01,0.00,30.5,29.3,00.0,39.1,32.3,09.1,0000.0,0008.74,0002.93,0001.86
2022-11-08 23:38:00,,0820.6,5.01,0.00,30.5,29.3,00.0,39.2,32.3,08.9,0000.0,0009.08,0002.94,0001.87
2022-11-08 23:39:00,,0820.6,4.99,0.00,30.5,29.3,00.0,39.2,32.3,08.9,0000.0,0009.09,0002.98,0001.89
2022-11-08 23:40:00,,0820.6,5.00,0.00,30.5,29.4,00.0,39.2,32.4,08.9,0000.0,0008.28,0002.96,0001.89
2022-11-08 23:41:00,,0820.6,5.01,0.00,30.5,29.4,00.0,39.2,32.4,08.8,0000.0,0007.90,0002.89,0001.88
2022-11-08 23:42:00,,0820.7,5.00,0.00,30.5,29.4,00.0,39.2,32.4,08.8,0000.0,0007.84,0002.87,0001.88
2022-11-08 23:43:00,,0820.6,5.00,0.00,30.6,29.4,00.0,39.2,32.4,08.8,0000.0,0008.44,0002.86,0001.89
2022-11-08 23:44:00,,0820.6,5.00,0.00,30.6,29.4,00.0,39.2,32.4,08.9,0000.0,0010.08,0002.89,0001.90
2022-11-08 23:45:00,,0820.6,5.00,0.00,30.6,29.4,00.0,39.3,32.4,08.9,0000.0,0010.96,0002.90,0001.90
2022-11-08 23:46:00,,0820.6,5.01,0.00,30.6,29.4,00.0,39.3,32.4,09.0,0000.0,0011.02,0002.94,0001.89
2022-11-08 23:47:00,,0820.6,4.98,0.00,30.6,28.9,00.0,39.3,32.4,09.0,0000.0,0010.38,0002.97,0001.89
2022-11-08 23:48:00,,0820.6,5.01,0.00,30.5,27.4,00.0,39.2,32.1,09.1,0000.0,0009.99,0002.92,0001.90
2022-11-08 23:49:00,,0820.6,5.01,0.00,30.5,26.9,00.0,39.2,32.0,09.1,0000.0,0010.35,0003.02,0001.91
2022-11-08 23:50:00,,0820.7,5.00,0.00,30.4,27.1,00.0,39.1,31.9,09.1,0000.0,0010.41,0003.02,0001.90
2022-11-08 23:51:00,,0820.7,5.00,0.00,30.3,27.4,00.0,39.1,31.8,09.3,0000.0,0010.47,0003.12,0001.93
2022-11-08 23:52:00,,0820.7,5.00,0.00,30.2,27.6,00.0,39.1,31.9,09.4,0000.0,0011.22,0003.20,0001.97
2022-11-08 23:53:00,,0820.7,4.99,0.00,30.2,27.9,00.0,39.0,31.9,09.4,0000.0,0011.38,0003.22,0002.01
2022-11-08 23:54:00,,0820.6,5.02,0.00,30.2,28.1,00.0,39.0,31.9,09.4,0000.0,0011.06,0003.22,0002.03
2022-11-08 23:55:00,,0820.7,5.00,0.00,30.2,28.2,00.0,39.0,31.9,09.5,0000.0,0009.93,0003.21,0002.04
2022-11-08 23:56:00,,0820.7,5.00,0.00,30.2,28.4,00.0,39.0,31.9,09.8,0000.0,0009.87,0003.22,0002.08
2022-11-08 23:57:00,,0820.8,5.00,0.00,30.2,28.5,00.0,39.0,32.0,09.9,0000.0,0010.67,0003.25,0002.13
2022-11-08 23:58:00,,0820.8,5.01,0.00,30.2,28.6,00.0,39.0,32.0,10.4,0000.0,0011.44,0003.33,0002.20
2022-11-08 23:59:00,,0820.9,4.99,0.00,30.2,28.7,00.0,39.0,32.0,10.4,0000.0,0012.52,0003.49,0002.31
